Mosinee, WI

10:03 AM CDT on July 20, 2017 (GMT -0500)
Central Wisconsin

Weather History for KCWA - October, 2012

Change the Weather History Date:

Wednesday, October 17, 2012

  Actual Average Record
Temperature  
Mean Temperature 54 °F -  
Max Temperature 66 °F 52 °F 75 °F (2016)
Min Temperature 42 °F 34 °F 24 °F (2001)
Degree Days  
Heating Degree Days 11    
Growing Degree Days 4 (Base 50)    
Moisture  
Dew Point 48 °F    
Average Humidity 94    
Maximum Humidity 100    
Minimum Humidity 60    
Precipitation  
Precipitation 0.24 in - - ()
Sea Level Pressure  
Sea Level Pressure 29.37 in    
Wind  
Wind Speed 6 mph (ESE)    
Max Wind Speed 15 mph    
Max Gust Speed 20 mph    
Visibility 7 miles    
Events Rain    
Averages and records for this station are not official NWS values.
T = Trace of Precipitation, MM = Missing Value Source: NWS Daily Summary

Daily Weather History Graph

Daily Weather History Graph

Search for Another Location

Airport or City:

Trip Planner

Search our weather history database for the weather conditions in past years. The results will help you decide how hot, cold, wet, or windy it might be!

Date:

Astronomy

Oct. 17, 2012 Rise Set
Actual Time 7:17 AM CDT 6:09 PM CDT
Civil Twilight 6:47 AM CDT 6:39 PM CDT
Nautical Twilight 6:13 AM CDT 7:13 PM CDT
Astronomical Twilight 5:39 AM CDT 7:46 PM CDT
Moon 9:59 AM CDT (10/17) 7:37 PM CDT (10/17)
Length of Visible Light 11h 51m
Length of Day
10h 52m
Waxing Crescent, 7% of the Moon is Illuminated
Oct 17
Waxing Crescent
Oct 21
First Quarter
Oct 29
Full
Nov 6
Last Quarter
Nov 13
New

Hourly Weather History & Observations

Time (CDT) Temp. Windchill Dew Point Humidity Pressure Visibility Wind Dir Wind Speed Gust Speed Precip Events Conditions
12:15 AM 50.0 °F - 46.4 °F 87% 29.45 in 10.0 mi East 8.1 mph - N/A   Scattered Clouds
12:35 AM 50.0 °F - 46.4 °F 87% 29.45 in 10.0 mi ESE 5.8 mph - N/A   Clear
12:55 AM 50.0 °F - 46.4 °F 87% 29.45 in 10.0 mi East 5.8 mph - N/A   Clear
1:15 AM 46.4 °F 44.3 °F 44.6 °F 93% 29.44 in 10.0 mi East 4.6 mph - N/A   Clear
1:35 AM 46.4 °F 44.3 °F 46.4 °F 100% 29.45 in 10.0 mi East 4.6 mph - N/A   Clear
1:55 AM 46.4 °F 44.3 °F 46.4 °F 100% 29.44 in 10.0 mi East 4.6 mph - N/A   Clear
2:15 AM 46.4 °F 44.3 °F 44.6 °F 93% 29.44 in 10.0 mi East 4.6 mph - N/A   Clear
2:35 AM 46.4 °F 43.5 °F 44.6 °F 93% 29.43 in 10.0 mi East 5.8 mph - N/A   Clear
2:55 AM 44.6 °F 41.4 °F 44.6 °F 100% 29.43 in 7.0 mi East 5.8 mph - N/A   Clear
3:15 AM 42.8 °F 39.3 °F 42.8 °F 100% 29.43 in 7.0 mi ENE 5.8 mph - N/A   Clear
3:35 AM 44.6 °F 41.4 °F 44.6 °F 100% 29.42 in 5.0 mi East 5.8 mph - N/A   Clear
3:55 AM 44.6 °F 41.4 °F 44.6 °F 100% 29.41 in 5.0 mi East 5.8 mph - N/A   Clear
4:15 AM 44.6 °F 42.2 °F 44.6 °F 100% 29.42 in 5.0 mi East 4.6 mph - N/A   Clear
4:35 AM 44.6 °F 41.4 °F 44.6 °F 100% 29.42 in 5.0 mi ESE 5.8 mph - N/A   Clear
4:55 AM 44.6 °F 41.4 °F 44.6 °F 100% 29.42 in 4.0 mi East 5.8 mph - N/A   Clear
5:15 AM 44.6 °F 41.4 °F 44.6 °F 100% 29.42 in 4.0 mi East 5.8 mph - N/A   Clear
5:35 AM 42.8 °F 39.3 °F 42.8 °F 100% 29.41 in 3.0 mi East 5.8 mph - N/A   Clear
5:50 AM 44.6 °F 42.2 °F 44.6 °F 100% 29.41 in 3.0 mi East 4.6 mph - N/A   Clear
6:45 AM 44.6 °F 41.4 °F 44.6 °F 100% 29.40 in 3.0 mi ESE 5.8 mph - N/A   Clear
7:50 AM 46.4 °F 43.5 °F 46.4 °F 100% 29.38 in 3.0 mi East 5.8 mph - N/A   Clear
8:59 AM 48.2 °F - 48.2 °F 100% 29.37 in 5.0 mi ESE 6.9 mph - N/A   Clear
9:50 AM 53.6 °F - 53.6 °F 100% 29.36 in 10.0 mi SSE 9.2 mph - N/A   Scattered Clouds
10:50 AM 60.8 °F - 53.6 °F 77% 29.35 in 10.0 mi SE 6.9 mph - N/A   Clear
11:45 AM 66.2 °F - 51.8 °F 60% 29.33 in 10.0 mi SSE 15.0 mph - N/A   Scattered Clouds
12:45 PM 64.4 °F - 51.8 °F 64% 29.31 in 10.0 mi South 12.7 mph - N/A   Mostly Cloudy
1:45 PM 62.6 °F - 51.8 °F 68% 29.31 in 10.0 mi South 13.8 mph - N/A   Scattered Clouds
2:45 PM 62.6 °F - 51.8 °F 68% 29.32 in 10.0 mi South 13.8 mph 19.6 mph N/A   Overcast
3:50 PM 57.2 °F - 53.6 °F 88% 29.30 in 7.0 mi SSE 8.1 mph - N/A Rain Light Rain
5:45 PM 55.4 °F - 55.4 °F 100% 29.30 in 10.0 mi SSE 6.9 mph - N/A   Overcast
6:45 PM 55.4 °F - 55.4 °F 100% 29.31 in 10.0 mi SSE 6.9 mph - N/A Rain Rain
8:45 PM 51.8 °F - 51.8 °F 100% 29.30 in 7.0 mi WNW 8.1 mph - N/A Rain Rain
9:45 PM 51.8 °F - 51.8 °F 100% 29.30 in 10.0 mi WSW 4.6 mph - N/A Rain Rain
10:15 PM 50.0 °F - 50.0 °F 100% 29.29 in 5.0 mi West 3.5 mph - 0.04 in Rain Rain
10:35 PM 50.0 °F - 50.0 °F 100% 29.28 in 7.0 mi Calm Calm - 0.07 in Rain Rain
10:55 PM 50.0 °F - 50.0 °F 100% 29.27 in 5.0 mi Calm Calm - 0.11 in Rain Rain
11:15 PM 50.0 °F - 50.0 °F 100% 29.26 in 2.0 mi ENE 3.5 mph - 0.05 in Rain Rain
11:35 PM 50.0 °F - 50.0 °F 100% 29.25 in 2.0 mi NNE 3.5 mph - 0.10 in Rain Rain
11:55 PM 50.0 °F - 50.0 °F 100% 29.24 in 7.0 mi Calm Calm - 0.13 in Rain Rain